| time (UTC) | temp F | wind direction | speed knots | gust knots | rain 1hr in | rain 24hr in | rain mn in | humidity % | barometer mb |
| 20260506165702 | 77 | 151 | 0.9 | 1.7 | 0.00 | 0.00 | 0.00 | 92 | 1010.0 |
| 20260506165159 | 77 | 150 | 0.9 | 0.9 | 0.00 | 0.00 | 0.00 | 93 | 1010.3 |
| 20260506164656 | 76 | 151 | 0.0 | 0.9 | 0.00 | 0.00 | 0.00 | 94 | 1010.2 |
| 20260506164153 | 77 | 151 | 1.7 | 1.7 | 0.00 | 0.00 | 0.00 | 93 | 1010.2 |
| 20260506163649 | 77 | 166 | 1.7 | 1.7 | 0.00 | 0.00 | 0.00 | 92 | 1010.2 |
| 20260506163145 | 77 | 149 | 0.9 | 0.9 | 0.00 | 0.00 | 0.00 | 91 | 1010.2 |
| 20260506162641 | 77 | 149 | 0.9 | 1.7 | 0.00 | 0.00 | 0.00 | 91 | 1010.2 |
| 20260506162139 | 77 | 149 | 0.0 | 0.9 | 0.00 | 0.00 | 0.00 | 91 | 1010.3 |
| 20260506161636 | 77 | 150 | 0.9 | 1.7 | 0.00 | 0.00 | 0.00 | 91 | 1010.4 |
| 20260506161132 | 77 | 149 | 0.9 | 0.9 | 0.00 | 0.00 | 0.00 | 91 | 1010.2 |
| 20260506160630 | 77 | 150 | 0.9 | 0.9 | 0.00 | 0.00 | 0.00 | 92 | 1010.3 |
| 20260506160127 | 77 | 151 | 0.0 | 0.9 | 0.00 | 0.00 | 0.00 | 92 | 1010.2 |
| 20260506155626 | 77 | 150 | 0.9 | 0.9 | 0.00 | 0.00 | 0.00 | 93 | 1010.0 |
| 20260506155122 | 76 | 151 | 0.0 | 0.0 | 0.00 | 0.00 | 0.00 | 94 | 1009.7 |
| 20260506153224 | 76 | 151 | 0.0 | 0.0 | 0.00 | 0.00 | 0.00 | 95 | 1009.5 |
| 20260506152721 | 75 | 151 | 0.0 | 0.0 | 0.00 | 0.00 | 0.00 | 95 | 1009.7 |
| 20260506152219 | 75 | 151 | 0.0 | 0.0 | 0.00 | 0.00 | 0.00 | 95 | 1009.5 |
| 20260506151718 | 75 | 151 | 0.0 | 0.0 | 0.00 | 0.00 | 0.00 | 96 | 1009.2 |
| 20260506151214 | 75 | 151 | 0.0 | 0.9 | 0.00 | 0.00 | 0.00 | 96 | 1009.1 |
| 20260506150710 | 74 | 151 | 0.0 | 0.0 | 0.00 | 0.00 | 0.00 | 96 | 1009.1 |
| 20260506150207 | 75 | 150 | 0.0 | 0.0 | 0.00 | 0.00 | 0.00 | 96 | 1009.3 |
| 20260506145704 | 74 | 150 | 0.0 | 0.0 | 0.00 | 0.00 | 0.00 | 96 | 1009.2 |
| 20260506145201 | 74 | 150 | 0.0 | 0.0 | 0.00 | 0.00 | 0.00 | 96 | 1009.1 |
| 20260506144659 | 74 | 150 | 0.0 | 0.9 | 0.00 | 0.00 | 0.00 | 96 | 1009.1 |
| 20260506144155 | 74 | 151 | 0.0 | 0.0 | 0.00 | 0.00 | 0.00 | 95 | 1009.0 |
| 20260506143653 | 74 | 151 | 0.0 | 0.0 | 0.00 | 0.00 | 0.00 | 95 | 1009.2 |
| 20260506143150 | 74 | 151 | 0.0 | 0.0 | 0.00 | 0.00 | 0.00 | 95 | 1009.0 |
| 20260506142649 | 74 | 151 | 0.0 | 0.0 | 0.00 | 0.00 | 0.00 | 95 | 1009.2 |
| 20260506142146 | 74 | 151 | 0.0 | 0.0 | 0.00 | 0.00 | 0.00 | 96 | 1009.3 |
| 20260506141644 | 74 | 151 | 0.0 | 0.0 | 0.00 | 0.00 | 0.00 | 96 | 1009.1 |
| 20260506141142 | 74 | 151 | 0.0 | 0.0 | 0.00 | 0.00 | 0.00 | 96 | 1008.7 |
| 20260506140639 | 74 | 152 | 0.0 | 0.0 | 0.00 | 0.00 | 0.00 | 96 | 1008.7 |
| 20260506140136 | 74 | 151 | 0.9 | 0.9 | 0.00 | 0.00 | 0.00 | 96 | 1008.5 |
| 20260506135633 | 74 | 152 | 0.9 | 1.7 | 0.00 | 0.00 | 0.00 | 96 | 1008.4 |
| 20260506135129 | 73 | 151 | 0.9 | 1.7 | 0.00 | 0.00 | 0.00 | 96 | 1008.1 |
| 20260506134626 | 73 | 152 | 0.9 | 0.9 | 0.00 | 0.00 | 0.00 | 96 | 1008.1 |
| 20260506134121 | 73 | 152 | 2.6 | 2.6 | 0.00 | 0.00 | 0.00 | 96 | 1008.1 |
| 20260506133619 | 73 | 151 | 0.9 | 0.9 | 0.00 | 0.00 | 0.00 | 96 | 1007.8 |
| 20260506133116 | 73 | 150 | 0.9 | 1.7 | 0.00 | 0.00 | 0.00 | 96 | 1007.8 |
| 20260506132613 | 73 | 150 | 1.7 | 1.7 | 0.00 | 0.00 | 0.00 | 97 | 1007.7 |
| 20260506132110 | 73 | 145 | 1.7 | 2.6 | 0.00 | 0.00 | 0.00 | 97 | 1008.0 |
| 20260506131608 | 73 | 152 | 0.9 | 0.9 | 0.00 | 0.00 | 0.00 | 97 | 1007.7 |
| 20260506131104 | 73 | 157 | 0.9 | 0.9 | 0.00 | 0.00 | 0.00 | 97 | 1008.0 |
| 20260506130601 | 73 | 151 | 2.6 | 4.3 | 0.00 | 0.00 | 0.00 | 97 | 1007.6 |
| 20260506130058 | 73 | 154 | 2.6 | 4.3 | 0.00 | 0.00 | 0.00 | 97 | 1007.5 |
| 20260506125557 | 73 | 152 | 2.6 | 2.6 | 0.00 | 0.00 | 0.00 | 97 | 1007.6 |
| 20260506125054 | 73 | 156 | 0.9 | 1.7 | 0.00 | 0.00 | 0.00 | 97 | 1007.5 |
| 20260506124552 | 73 | 150 | 1.7 | 1.7 | 0.00 | 0.00 | 0.00 | 97 | 1007.6 |
| 20260506124049 | 73 | 155 | 1.7 | 1.7 | 0.00 | 0.00 | 0.00 | 97 | 1007.6 |
| 20260506123547 | 73 | 151 | 0.9 | 0.9 | 0.00 | 0.00 | 0.00 | 97 | 1007.6 |
| 20260506123045 | 73 | 151 | 2.6 | 2.6 | 0.00 | 0.00 | 0.00 | 97 | 1007.6 |
| 20260506122541 | 73 | 150 | 0.9 | 0.9 | 0.00 | 0.00 | 0.00 | 97 | 1007.5 |
| 20260506122040 | 73 | 149 | 0.0 | 0.9 | 0.00 | 0.00 | 0.00 | 97 | 1007.8 |
| 20260506121537 | 73 | 149 | 0.0 | 0.9 | 0.00 | 0.00 | 0.00 | 97 | 1007.6 |
| 20260506121033 | 73 | 150 | 0.0 | 0.0 | 0.00 | 0.00 | 0.00 | 97 | 1007.8 |
| 20260506120531 | 73 | 149 | 0.0 | 0.9 | 0.00 | 0.00 | 0.00 | 97 | 1007.4 |
| 20260506120028 | 73 | 150 | 0.0 | 0.9 | 0.00 | 0.00 | 0.00 | 97 | 1007.5 |
| 20260506115526 | 73 | 150 | 0.0 | 0.9 | 0.00 | 0.00 | 0.00 | 97 | 1007.8 |
| 20260506115024 | 73 | 150 | 0.0 | 0.0 | 0.00 | 0.00 | 0.00 | 97 | 1007.5 |
| 20260506114521 | 73 | 152 | 0.0 | 0.9 | 0.00 | 0.00 | 0.00 | 96 | 1007.5 |
| 20260506114020 | 73 | 187 | 1.7 | 2.6 | 0.00 | 0.00 | 0.00 | 96 | 1007.4 |
| 20260506113517 | 73 | 150 | 0.0 | 0.9 | 0.00 | 0.00 | 0.00 | 96 | 1007.4 |
| 20260506113014 | 73 | 150 | 0.9 | 0.9 | 0.00 | 0.00 | 0.00 | 96 | 1007.4 |
| 20260506112511 | 73 | 149 | 0.9 | 0.9 | 0.00 | 0.00 | 0.00 | 96 | 1007.4 |
| 20260506112008 | 73 | 152 | 1.7 | 1.7 | 0.00 | 0.00 | 0.00 | 96 | 1007.5 |
| 20260506111506 | 73 | 150 | 0.0 | 0.0 | 0.00 | 0.00 | 0.00 | 96 | 1007.3 |
| 20260506111003 | 73 | 150 | 0.9 | 0.9 | 0.00 | 0.00 | 0.00 | 96 | 1007.4 |
| 20260506110501 | 73 | 151 | 0.9 | 0.9 | 0.00 | 0.00 | 0.00 | 96 | 1007.4 |
| 20260506105957 | 73 | 150 | 0.0 | 0.0 | 0.00 | 0.00 | 0.00 | 96 | 1007.4 |
| 20260506105453 | 73 | 150 | 0.9 | 0.9 | 0.00 | 0.00 | 0.00 | 96 | 1007.2 |
| 20260506104951 | 73 | 150 | 0.0 | 0.9 | 0.00 | 0.00 | 0.00 | 96 | 1007.2 |
| 20260506104449 | 73 | 150 | 1.7 | 1.7 | 0.00 | 0.00 | 0.00 | 96 | 1007.2 |
| 20260506103947 | 73 | 150 | 0.9 | 0.9 | 0.00 | 0.00 | 0.00 | 96 | 1006.8 |
| 20260506103444 | 73 | 164 | 0.9 | 1.7 | 0.00 | 0.00 | 0.00 | 96 | 1007.2 |
| 20260506102940 | 73 | 152 | 0.9 | 0.9 | 0.00 | 0.00 | 0.00 | 96 | 1007.3 |
| 20260506102439 | 73 | 204 | 3.5 | 5.2 | 0.00 | 0.00 | 0.00 | 96 | 1007.1 |
| 20260506101936 | 73 | 151 | 1.7 | 2.6 | 0.00 | 0.00 | 0.00 | 96 | 1007.3 |
| 20260506101432 | 73 | 168 | 1.7 | 1.7 | 0.00 | 0.00 | 0.00 | 96 | 1007.3 |
| 20260506100929 | 73 | 151 | 0.9 | 0.9 | 0.00 | 0.00 | 0.00 | 96 | 1007.1 |
| 20260506100427 | 73 | 152 | 0.9 | 1.7 | 0.00 | 0.00 | 0.00 | 96 | 1007.2 |
| 20260506095925 | 73 | 157 | 1.7 | 1.7 | 0.00 | 0.00 | 0.00 | 96 | 1007.2 |
| 20260506095424 | 73 | 156 | 1.7 | 1.7 | 0.00 | 0.00 | 0.00 | 96 | 1007.2 |
| 20260506094919 | 73 | 152 | 1.7 | 1.7 | 0.00 | 0.00 | 0.00 | 96 | 1007.2 |
| 20260506094418 | 73 | 156 | 0.9 | 0.9 | 0.00 | 0.00 | 0.00 | 96 | 1007.2 |
| 20260506093915 | 73 | 191 | 1.7 | 1.7 | 0.00 | 0.00 | 0.00 | 96 | 1006.9 |
| 20260506093413 | 73 | 153 | 1.7 | 1.7 | 0.00 | 0.00 | 0.00 | 96 | 1007.2 |
| 20260506092911 | 73 | 155 | 1.7 | 1.7 | 0.00 | 0.00 | 0.00 | 96 | 1006.9 |
| 20260506092409 | 73 | 152 | 0.9 | 0.9 | 0.00 | 0.00 | 0.00 | 96 | 1007.1 |
| 20260506091905 | 73 | 151 | 1.7 | 2.6 | 0.00 | 0.00 | 0.00 | 96 | 1006.8 |
| 20260506091403 | 73 | 195 | 2.6 | 2.6 | 0.00 | 0.00 | 0.00 | 96 | 1006.4 |
| 20260506090900 | 73 | 153 | 2.6 | 4.3 | 0.00 | 0.00 | 0.00 | 96 | 1006.8 |
| 20260506090357 | 73 | 155 | 2.6 | 2.6 | 0.00 | 0.00 | 0.00 | 96 | 1006.7 |
| 20260506085854 | 73 | 151 | 2.6 | 2.6 | 0.00 | 0.00 | 0.00 | 96 | 1006.9 |
| 20260506085350 | 73 | 160 | 1.7 | 2.6 | 0.00 | 0.00 | 0.00 | 96 | 1006.6 |
| 20260506084847 | 73 | 149 | 3.5 | 4.3 | 0.00 | 0.00 | 0.00 | 96 | 1006.7 |
| 20260506084344 | 73 | 160 | 1.7 | 2.6 | 0.00 | 0.00 | 0.00 | 96 | 1006.7 |
| 20260506083840 | 73 | 160 | 2.6 | 2.6 | 0.00 | 0.00 | 0.00 | 96 | 1006.7 |
| 20260506083338 | 73 | 146 | 2.6 | 2.6 | 0.00 | 0.00 | 0.00 | 96 | 1006.6 |
| 20260506082835 | 73 | 153 | 3.5 | 4.3 | 0.00 | 0.00 | 0.00 | 96 | 1006.7 |
| 20260506082331 | 73 | 151 | 1.7 | 1.7 | 0.00 | 0.00 | 0.00 | 96 | 1006.9 |
| 20260506081828 | 73 | 166 | 1.7 | 1.7 | 0.00 | 0.00 | 0.00 | 96 | 1006.9 |
| 20260506081326 | 73 | 150 | 2.6 | 4.3 | 0.00 | 0.00 | 0.00 | 96 | 1007.1 |
| 20260506080823 | 73 | 153 | 2.6 | 2.6 | 0.00 | 0.00 | 0.00 | 96 | 1007.3 |
| 20260506080319 | 73 | 168 | 2.6 | 2.6 | 0.00 | 0.00 | 0.00 | 96 | 1006.8 |
| 20260506073304 | 74 | 144 | 3.5 | 4.3 | 0.00 | 0.00 | 0.00 | 95 | 1007.1 |
| 20260506072800 | 74 | 154 | 2.6 | 2.6 | 0.00 | 0.00 | 0.00 | 95 | 1007.3 |
| 20260506072258 | 74 | 151 | 1.7 | 2.6 | 0.00 | 0.00 | 0.00 | 95 | 1007.2 |
| 20260506071755 | 74 | 157 | 2.6 | 2.6 | 0.00 | 0.00 | 0.00 | 95 | 1007.3 |
| 20260506071254 | 74 | 156 | 2.6 | 4.3 | 0.00 | 0.00 | 0.00 | 95 | 1007.3 |
| 20260506070750 | 74 | 156 | 3.5 | 5.2 | 0.00 | 0.00 | 0.00 | 95 | 1007.5 |
| 20260506070247 | 74 | 145 | 5.2 | 6.1 | 0.00 | 0.00 | 0.00 | 95 | 1007.5 |
| 20260506062224 | 74 | 200 | 2.6 | 2.6 | 0.00 | 0.00 | 0.00 | 96 | 1007.6 |
| 20260506061720 | 74 | 157 | 1.7 | 1.7 | 0.00 | 0.00 | 0.00 | 96 | 1007.8 |
| 20260506061218 | 74 | 168 | 3.5 | 5.2 | 0.00 | 0.00 | 0.00 | 96 | 1007.8 |
| 20260506060716 | 74 | 163 | 1.7 | 1.7 | 0.00 | 0.00 | 0.00 | 96 | 1007.8 |
| 20260506060213 | 74 | 163 | 1.7 | 2.6 | 0.00 | 0.00 | 0.00 | 96 | 1007.8 |
| 20260506051145 | 75 | 173 | 2.6 | 2.6 | 0.00 | 0.00 | 0.00 | 95 | 1007.4 |
| 20260506050643 | 75 | 179 | 2.6 | 2.6 | 0.00 | 0.00 | 0.00 | 95 | 1007.6 |
| 20260506050140 | 75 | 144 | 2.6 | 2.6 | 0.00 | 0.00 | 0.00 | 95 | 1007.5 |
| 20260506045133 | 75 | 158 | 2.6 | 2.6 | 0.00 | 0.00 | 0.00 | 95 | 1007.6 |
| 20260506044631 | 75 | 165 | 4.3 | 6.1 | 0.00 | 0.00 | 0.00 | 95 | 1007.4 |
| 20260506044128 | 75 | 165 | 1.7 | 1.7 | 0.00 | 0.00 | 0.00 | 95 | 1007.5 |
| 20260506043625 | 75 | 170 | 4.3 | 6.1 | 0.00 | 0.00 | 0.00 | 95 | 1007.3 |
| 20260506043123 | 75 | 149 | 2.6 | 4.3 | 0.00 | 0.00 | 0.00 | 94 | 1007.4 |
| 20260506042622 | 75 | 151 | 2.6 | 2.6 | 0.00 | 0.00 | 0.00 | 94 | 1007.6 |
| 20260506042119 | 75 | 152 | 2.6 | 2.6 | 0.00 | 0.00 | 0.00 | 94 | 1007.5 |
| 20260506041618 | 75 | 166 | 2.6 | 2.6 | 0.00 | 0.00 | 0.00 | 94 | 1007.4 |
| 20260506041114 | 75 | 156 | 1.7 | 2.6 | 0.00 | 0.00 | 0.00 | 94 | 1007.5 |
| 20260506040612 | 75 | 153 | 4.3 | 6.1 | 0.00 | 0.00 | 0.00 | 94 | 1007.5 |
| 20260506040108 | 75 | 207 | 4.3 | 6.1 | 0.00 | 0.00 | 0.00 | 94 | 1007.3 |
| 20260506035605 | 75 | 165 | 2.6 | 2.6 | 0.00 | 0.00 | 0.00 | 94 | 1007.3 |
| 20260506035102 | 76 | 152 | 2.6 | 4.3 | 0.00 | 0.00 | 0.00 | 94 | 1007.4 |
| 20260506034559 | 76 | 151 | 2.6 | 2.6 | 0.00 | 0.00 | 0.00 | 94 | 1007.1 |
| 20260506034056 | 76 | 156 | 1.7 | 1.7 | 0.00 | 0.00 | 0.00 | 94 | 1007.2 |
| 20260506033553 | 76 | 152 | 3.5 | 4.3 | 0.00 | 0.00 | 0.00 | 93 | 1006.8 |
| 20260506033050 | 76 | 153 | 2.6 | 5.2 | 0.00 | 0.00 | 0.00 | 93 | 1006.7 |
| 20260506032548 | 76 | 169 | 2.6 | 4.3 | 0.00 | 0.00 | 0.00 | 93 | 1006.5 |
| 20260506032044 | 76 | 157 | 1.7 | 1.7 | 0.00 | 0.00 | 0.00 | 93 | 1006.5 |
| 20260506031542 | 76 | 195 | 2.6 | 4.3 | 0.00 | 0.00 | 0.00 | 93 | 1006.6 |
| 20260506031038 | 76 | 156 | 1.7 | 1.7 | 0.00 | 0.00 | 0.00 | 93 | 1006.5 |
| 20260506030537 | 76 | 160 | 2.6 | 5.2 | 0.00 | 0.00 | 0.00 | 93 | 1006.5 |
| 20260506030034 | 76 | 167 | 3.5 | 5.2 | 0.00 | 0.00 | 0.00 | 92 | 1006.5 |
| 20260506025531 | 76 | 156 | 0.9 | 1.7 | 0.00 | 0.00 | 0.00 | 92 | 1006.4 |
| 20260506025026 | 76 | 152 | 2.6 | 4.3 | 0.00 | 0.00 | 0.00 | 92 | 1006.2 |
| 20260506024524 | 77 | 155 | 0.9 | 1.7 | 0.00 | 0.00 | 0.00 | 91 | 1006.2 |
| 20260506024020 | 77 | 156 | 0.9 | 1.7 | 0.00 | 0.00 | 0.00 | 91 | 1006.1 |
| 20260506023516 | 77 | 155 | 1.7 | 1.7 | 0.00 | 0.00 | 0.00 | 90 | 1005.9 |
| 20260506023014 | 77 | 155 | 1.7 | 1.7 | 0.00 | 0.00 | 0.00 | 89 | 1006.0 |
| 20260506022511 | 78 | 155 | 0.9 | 1.7 | 0.00 | 0.00 | 0.00 | 89 | 1006.0 |
| 20260506022009 | 78 | 167 | 2.6 | 2.6 | 0.00 | 0.00 | 0.00 | 88 | 1006.0 |
| 20260506021506 | 78 | 153 | 1.7 | 2.6 | 0.00 | 0.00 | 0.00 | 88 | 1005.7 |
| 20260506021003 | 78 | 154 | 2.6 | 2.6 | 0.00 | 0.00 | 0.00 | 87 | 1005.8 |
| 20260506020501 | 78 | 157 | 1.7 | 1.7 | 0.00 | 0.00 | 0.00 | 87 | 1005.8 |
| 20260506015957 | 78 | 155 | 0.9 | 0.9 | 0.00 | 0.00 | 0.00 | 86 | 1005.7 |
| 20260506015455 | 78 | 155 | 0.9 | 1.7 | 0.00 | 0.00 | 0.00 | 86 | 1005.6 |
| 20260506014952 | 78 | 154 | 0.9 | 0.9 | 0.00 | 0.00 | 0.00 | 86 | 1005.4 |
| 20260506014449 | 78 | 154 | 0.9 | 0.9 | 0.00 | 0.00 | 0.00 | 86 | 1005.6 |
| 20260506013945 | 79 | 154 | 0.9 | 0.9 | 0.00 | 0.00 | 0.00 | 86 | 1005.3 |
| 20260506013443 | 79 | 154 | 0.0 | 0.0 | 0.00 | 0.00 | 0.00 | 85 | 1005.3 |
| 20260506012939 | 79 | 154 | 0.9 | 0.9 | 0.00 | 0.00 | 0.00 | 85 | 1005.1 |
| 20260506012436 | 79 | 153 | 0.0 | 0.9 | 0.00 | 0.00 | 0.00 | 85 | 1005.2 |
| 20260506011933 | 79 | 153 | 0.9 | 0.9 | 0.00 | 0.00 | 0.00 | 84 | 1005.2 |
| 20260506011430 | 80 | 153 | 0.9 | 0.9 | 0.00 | 0.00 | 0.00 | 83 | 1005.3 |
| 20260506010927 | 80 | 151 | 1.7 | 1.7 | 0.00 | 0.00 | 0.00 | 83 | 1005.2 |
| 20260506010426 | 80 | 153 | 0.9 | 1.7 | 0.00 | 0.00 | 0.00 | 82 | 1005.2 |
| 20260506005921 | 81 | 152 | 0.9 | 0.9 | 0.00 | 0.00 | 0.00 | 82 | 1005.2 |
| 20260506005420 | 81 | 152 | 1.7 | 1.7 | 0.00 | 0.00 | 0.00 | 81 | 1005.2 |
| 20260506004914 | 81 | 151 | 0.9 | 1.7 | 0.00 | 0.00 | 0.00 | 80 | 1005.2 |
| 20260506004413 | 81 | 152 | 0.0 | 0.0 | 0.00 | 0.00 | 0.00 | 81 | 1005.3 |
| 20260506003908 | 81 | 152 | 0.9 | 0.9 | 0.00 | 0.00 | 0.00 | 80 | 1005.1 |
| 20260506003405 | 82 | 152 | 0.9 | 0.9 | 0.00 | 0.00 | 0.00 | 80 | 1005.0 |
| 20260506002902 | 82 | 152 | 0.0 | 0.0 | 0.00 | 0.00 | 0.00 | 79 | 1005.2 |
| 20260506002358 | 82 | 152 | 0.0 | 0.9 | 0.00 | 0.00 | 0.00 | 79 | 1005.5 |
| 20260506001853 | 82 | 151 | 0.9 | 0.9 | 0.00 | 0.00 | 0.00 | 78 | 1005.0 |
| 20260506001350 | 82 | 151 | 1.7 | 1.7 | 0.00 | 0.00 | 0.00 | 79 | 1004.9 |
| 20260506000847 | 82 | 152 | 0.9 | 1.7 | 0.00 | 0.00 | 0.00 | 78 | 1004.9 |
| 20260506000346 | 83 | 152 | 0.0 | 0.9 | 0.00 | 0.00 | 0.00 | 78 | 1005.0 |
| 20260505235842 | 83 | 152 | 0.9 | 0.9 | 0.00 | 0.00 | 0.00 | 77 | 1004.9 |
| 20260505235339 | 83 | 152 | 0.9 | 1.7 | 0.00 | 0.00 | 0.00 | 77 | 1004.9 |
| 20260505234836 | 83 | 152 | 0.9 | 1.7 | 0.00 | 0.00 | 0.00 | 76 | 1004.8 |
| 20260505234334 | 84 | 151 | 0.9 | 1.7 | 0.00 | 0.00 | 0.00 | 76 | 1004.8 |
| 20260505233831 | 84 | 152 | 2.6 | 5.2 | 0.00 | 0.00 | 0.00 | 75 | 1004.8 |
| 20260505233329 | 84 | 153 | 2.6 | 2.6 | 0.00 | 0.00 | 0.00 | 75 | 1004.7 |
| 20260505232826 | 84 | 152 | 2.6 | 2.6 | 0.00 | 0.00 | 0.00 | 76 | 1004.7 |
| 20260505232323 | 84 | 153 | 0.9 | 1.7 | 0.00 | 0.00 | 0.00 | 75 | 1004.7 |
| 20260505231820 | 84 | 154 | 2.6 | 4.3 | 0.00 | 0.00 | 0.00 | 74 | 1004.8 |
| 20260505231318 | 83 | 171 | 1.7 | 2.6 | 0.00 | 0.00 | 0.00 | 74 | 1004.9 |
| 20260505230816 | 83 | 150 | 3.5 | 5.2 | 0.00 | 0.00 | 0.00 | 73 | 1004.7 |
| 20260505230313 | 83 | 152 | 1.7 | 2.6 | 0.00 | 0.00 | 0.00 | 75 | 1004.6 |
| 20260505225809 | 84 | 152 | 2.6 | 2.6 | 0.00 | 0.00 | 0.00 | 74 | 1004.4 |
| 20260505225306 | 84 | 150 | 3.5 | 4.3 | 0.00 | 0.00 | 0.00 | 73 | 1004.4 |
| 20260505224801 | 84 | 150 | 3.5 | 5.2 | 0.00 | 0.00 | 0.00 | 72 | 1004.6 |
| 20260505224259 | 84 | 153 | 2.6 | 4.3 | 0.00 | 0.00 | 0.00 | 73 | 1004.5 |
| 20260505223756 | 84 | 184 | 2.6 | 4.3 | 0.00 | 0.00 | 0.00 | 72 | 1004.7 |
| 20260505223253 | 84 | 151 | 3.5 | 5.2 | 0.00 | 0.00 | 0.00 | 72 | 1004.6 |
| 20260505222749 | 85 | 209 | 3.5 | 4.3 | 0.00 | 0.00 | 0.00 | 71 | 1005.0 |
| 20260505222245 | 84 | 153 | 0.9 | 1.7 | 0.00 | 0.00 | 0.00 | 73 | 1004.7 |
| 20260505221743 | 84 | 155 | 2.6 | 4.3 | 0.00 | 0.00 | 0.00 | 72 | 1004.7 |
| 20260505221239 | 84 | 166 | 2.6 | 4.3 | 0.00 | 0.00 | 0.00 | 71 | 1004.8 |
| 20260505220736 | 84 | 209 | 2.6 | 4.3 | 0.00 | 0.00 | 0.00 | 72 | 1004.8 |
| 20260505220233 | 84 | 182 | 1.7 | 2.6 | 0.00 | 0.00 | 0.00 | 72 | 1005.0 |
| 20260505215731 | 84 | 211 | 2.6 | 2.6 | 0.00 | 0.00 | 0.00 | 73 | 1004.9 |
| 20260505215229 | 84 | 151 | 2.6 | 4.3 | 0.00 | 0.00 | 0.00 | 73 | 1004.7 |
| 20260505214727 | 83 | 186 | 3.5 | 4.3 | 0.00 | 0.00 | 0.00 | 73 | 1004.8 |
| 20260505214224 | 84 | 156 | 1.7 | 2.6 | 0.00 | 0.00 | 0.00 | 73 | 1004.8 |
| 20260505213721 | 85 | 157 | 2.6 | 2.6 | 0.00 | 0.00 | 0.00 | 71 | 1005.3 |
| 20260505213218 | 85 | 152 | 2.6 | 5.2 | 0.00 | 0.00 | 0.00 | 71 | 1005.0 |
| 20260505212714 | 86 | 171 | 2.6 | 4.3 | 0.00 | 0.00 | 0.00 | 71 | 1005.1 |
| 20260505212212 | 84 | 154 | 5.2 | 7.0 | 0.00 | 0.00 | 0.00 | 73 | 1005.6 |
| 20260505211708 | 84 | 153 | 3.5 | 4.3 | 0.00 | 0.00 | 0.00 | 73 | 1005.4 |
| 20260505211206 | 83 | 156 | 3.5 | 5.2 | 0.00 | 0.00 | 0.00 | 73 | 1005.5 |
| 20260505210702 | 84 | 153 | 4.3 | 6.1 | 0.00 | 0.00 | 0.00 | 73 | 1005.7 |
| 20260505210159 | 84 | 154 | 0.9 | 1.7 | 0.00 | 0.00 | 0.00 | 72 | 1005.6 |
| 20260505205656 | 84 | 153 | 3.5 | 4.3 | 0.00 | 0.00 | 0.00 | 72 | 1005.8 |
| 20260505205154 | 84 | 152 | 2.6 | 2.6 | 0.00 | 0.00 | 0.00 | 72 | 1005.7 |
| 20260505204651 | 84 | 155 | 1.7 | 1.7 | 0.00 | 0.00 | 0.00 | 72 | 1005.7 |
| 20260505204149 | 84 | 155 | 1.7 | 4.3 | 0.00 | 0.00 | 0.00 | 73 | 1005.8 |
| 20260505203646 | 83 | 155 | 1.7 | 1.7 | 0.00 | 0.00 | 0.00 | 74 | 1005.9 |
| 20260505203142 | 82 | 182 | 2.6 | 2.6 | 0.00 | 0.00 | 0.00 | 75 | 1006.0 |
| 20260505202638 | 83 | 155 | 0.0 | 0.9 | 0.00 | 0.00 | 0.00 | 75 | 1006.1 |
| 20260505202134 | 84 | 152 | 2.6 | 4.3 | 0.00 | 0.00 | 0.00 | 74 | 1006.1 |
| 20260505201631 | 82 | 155 | 1.7 | 1.7 | 0.00 | 0.00 | 0.00 | 75 | 1006.1 |
| 20260505201129 | 82 | 156 | 3.5 | 5.2 | 0.00 | 0.00 | 0.00 | 76 | 1006.2 |
| 20260505200627 | 84 | 187 | 2.6 | 2.6 | 0.00 | 0.00 | 0.00 | 74 | 1006.3 |
| 20260505200124 | 85 | 190 | 1.7 | 2.6 | 0.00 | 0.00 | 0.00 | 73 | 1006.4 |
| 20260505195620 | 83 | 208 | 2.6 | 4.3 | 0.00 | 0.00 | 0.00 | 74 | 1006.3 |
| 20260505195117 | 82 | 215 | 6.1 | 7.0 | 0.00 | 0.00 | 0.00 | 75 | 1006.5 |
| 20260505194614 | 82 | 156 | 2.6 | 2.6 | 0.00 | 0.00 | 0.00 | 76 | 1006.6 |
| 20260505194109 | 82 | 176 | 4.3 | 5.2 | 0.00 | 0.00 | 0.00 | 76 | 1006.6 |
| 20260505193601 | 82 | 158 | 1.7 | 1.7 | 0.00 | 0.00 | 0.00 | 76 | 1006.6 |
| 20260505193058 | 82 | 213 | 1.7 | 1.7 | 0.00 | 0.00 | 0.00 | 76 | 1006.9 |
| 20260505192557 | 82 | 211 | 5.2 | 7.0 | 0.00 | 0.00 | 0.00 | 75 | 1006.7 |
| 20260505192054 | 81 | 206 | 3.5 | 4.3 | 0.00 | 0.00 | 0.00 | 77 | 1006.8 |
| 20260505191552 | 81 | 161 | 0.9 | 0.9 | 0.00 | 0.00 | 0.00 | 77 | 1006.7 |
| 20260505191049 | 81 | 160 | 1.7 | 2.6 | 0.00 | 0.00 | 0.00 | 77 | 1006.6 |
| 20260505190544 | 81 | 203 | 4.3 | 6.1 | 0.00 | 0.00 | 0.00 | 77 | 1006.8 |
| 20260505190040 | 81 | 162 | 3.5 | 4.3 | 0.00 | 0.00 | 0.00 | 78 | 1007.1 |
| 20260505185537 | 80 | 162 | 1.7 | 2.6 | 0.00 | 0.00 | 0.00 | 80 | 1007.1 |
| 20260505185033 | 80 | 210 | 3.5 | 5.2 | 0.00 | 0.00 | 0.00 | 80 | 1007.4 |
| 20260505184530 | 79 | 161 | 0.9 | 0.9 | 0.00 | 0.00 | 0.00 | 81 | 1007.4 |
| 20260505184027 | 80 | 161 | 1.7 | 1.7 | 0.00 | 0.00 | 0.00 | 81 | 1007.4 |
| 20260505183524 | 79 | 207 | 4.3 | 6.1 | 0.00 | 0.00 | 0.00 | 80 | 1007.4 |
| 20260505183021 | 80 | 209 | 3.5 | 6.1 | 0.00 | 0.00 | 0.00 | 80 | 1007.5 |
| 20260505182518 | 80 | 161 | 0.9 | 0.9 | 0.00 | 0.00 | 0.00 | 79 | 1007.5 |
| 20260505182015 | 80 | 161 | 3.5 | 4.3 | 0.00 | 0.00 | 0.00 | 80 | 1007.3 |
| 20260505181511 | 79 | 161 | 2.6 | 2.6 | 0.00 | 0.00 | 0.00 | 80 | 1007.5 |
| 20260505181009 | 78 | 162 | 2.6 | 4.3 | 0.00 | 0.00 | 0.00 | 83 | 1007.5 |
| 20260505180504 | 77 | 170 | 1.7 | 2.6 | 0.00 | 0.00 | 0.00 | 84 | 1007.9 |
| 20260505180002 | 77 | 190 | 1.7 | 2.6 | 0.00 | 0.00 | 0.00 | 84 | 1007.7 |
| 20260505175457 | 77 | 193 | 2.6 | 2.6 | 0.00 | 0.00 | 0.00 | 84 | 1007.7 |
| 20260505174954 | 77 | 209 | 2.6 | 4.3 | 0.00 | 0.00 | 0.00 | 84 | 1007.9 |
| 20260505174451 | 77 | 162 | 1.7 | 1.7 | 0.00 | 0.00 | 0.00 | 85 | 1007.8 |
| 20260505173947 | 77 | 160 | 3.5 | 4.3 | 0.00 | 0.00 | 0.00 | 84 | 1007.8 |
| 20260505173444 | 77 | 161 | 2.6 | 2.6 | 0.00 | 0.00 | 0.00 | 84 | 1008.0 |
| 20260505172941 | 77 | 161 | 2.6 | 2.6 | 0.00 | 0.00 | 0.00 | 84 | 1007.7 |
| 20260505172439 | 77 | 162 | 2.6 | 2.6 | 0.00 | 0.00 | 0.00 | 84 | 1007.9 |
| 20260505171938 | 77 | 176 | 2.6 | 2.6 | 0.00 | 0.00 | 0.00 | 85 | 1007.8 |
| 20260505171436 | 76 | 161 | 2.6 | 5.2 | 0.00 | 0.00 | 0.00 | 86 | 1007.9 |
| 20260505170932 | 76 | 162 | 0.9 | 0.9 | 0.00 | 0.00 | 0.00 | 87 | 1007.8 |
| 20260505170429 | 75 | 164 | 1.7 | 1.7 | 0.00 | 0.00 | 0.00 | 89 | 1008.0 |
| 20260505165924 | 75 | 205 | 2.6 | 2.6 | 0.00 | 0.00 | 0.00 | 89 | 1008.2 |